TimeEDT,TemperatureF,Dew PointF,Humidity,Sea Level PressureIn,VisibilityMPH,Wind Direction,Wind SpeedMPH,Gust SpeedMPH,PrecipitationIn,Events,Conditions,WindDirDegrees,DateUTC
12:03 AM,66.2,66.2,100,30.17,10.0,NE,1.2,-,N/A,,Overcast,40,2013-05-19 04:03:00
12:13 AM,66.2,66.2,100,30.17,9.0,North,2.3,-,N/A,,Overcast,10,2013-05-19 04:13:00
12:23 AM,66.2,66.2,100,30.17,9.0,Calm,Calm,-,N/A,,Overcast,0,2013-05-19 04:23:00
12:28 AM,66.2,66.2,100,30.17,10.0,West,1.2,-,N/A,,Overcast,280,2013-05-19 04:28:00
12:33 AM,66.2,66.2,100,30.17,9.0,West,2.3,-,N/A,,Overcast,270,2013-05-19 04:33:00
12:58 AM,66.0,66.0,100,30.19,9.0,Calm,Calm,-,N/A,,Overcast,0,2013-05-19 04:58:00
1:18 AM,66.2,66.2,100,30.16,8.0,West,3.5,-,N/A,,Mostly Cloudy,280,2013-05-19 05:18:00
1:22 AM,66.2,66.2,100,30.16,7.0,West,2.3,-,N/A,Rain,Light Rain,270,2013-05-19 05:22:00
1:27 AM,66.2,66.2,100,30.16,6.0,West,2.3,-,N/A,Rain,Light Rain,270,2013-05-19 05:27:00
1:37 AM,66.2,66.2,100,30.16,5.0,Calm,Calm,-,N/A,Rain,Light Rain,0,2013-05-19 05:37:00
1:42 AM,66.2,66.2,100,30.16,6.0,Calm,Calm,-,N/A,Rain,Light Rain,0,2013-05-19 05:42:00
1:47 AM,66.2,66.2,100,30.15,8.0,Calm,Calm,-,N/A,Rain,Light Rain,0,2013-05-19 05:47:00
1:50 AM,66.2,66.2,100,30.15,8.0,WSW,2.3,-,N/A,,Mostly Cloudy,250,2013-05-19 05:50:00
1:55 AM,66.2,66.2,100,30.15,8.0,Calm,Calm,-,N/A,,Mostly Cloudy,0,2013-05-19 05:55:00
1:58 AM,66.0,66.0,100,30.17,7.0,Variable,1.2,-,0.01,,Mostly Cloudy,0,2013-05-19 05:58:00
2:00 AM,66.2,66.2,100,30.15,7.0,ESE,3.5,-,N/A,Rain,Light Rain,120,2013-05-19 06:00:00
2:05 AM,66.2,66.2,100,30.15,8.0,South,3.5,-,N/A,Rain,Light Rain,180,2013-05-19 06:05:00
2:10 AM,66.2,66.2,100,30.15,7.0,South,2.3,-,N/A,Rain,Light Rain,190,2013-05-19 06:10:00
2:20 AM,66.2,66.2,100,30.15,7.0,Calm,Calm,-,N/A,Rain,Light Rain,0,2013-05-19 06:20:00
2:26 AM,66.2,66.2,100,30.14,8.0,West,1.2,-,N/A,,Overcast,260,2013-05-19 06:26:00
2:28 AM,66.2,66.2,100,30.14,8.0,WSW,1.2,-,N/A,Rain,Light Rain,250,2013-05-19 06:28:00
2:37 AM,66.2,66.2,100,30.14,8.0,Calm,Calm,-,N/A,,Overcast,0,2013-05-19 06:37:00
2:42 AM,66.2,66.2,100,30.14,9.0,Calm,Calm,-,N/A,,Overcast,0,2013-05-19 06:42:00
2:58 AM,66.7,66.7,100,30.16,10.0,Calm,Calm,-,0.00,,Overcast,0,2013-05-19 06:58:00
3:03 AM,66.2,66.2,100,30.14,10.0,Calm,Calm,-,N/A,,Overcast,0,2013-05-19 07:03:00
3:08 AM,66.2,66.2,100,30.14,8.0,North,1.2,-,N/A,,Overcast,360,2013-05-19 07:08:00
3:11 AM,66.2,66.2,100,30.14,8.0,NNW,2.3,-,N/A,,Overcast,340,2013-05-19 07:11:00
3:26 AM,68.0,68.0,100,30.14,7.0,Calm,Calm,-,N/A,,Overcast,0,2013-05-19 07:26:00
3:31 AM,68.0,68.0,100,30.14,7.0,SSW,1.2,-,N/A,,Overcast,210,2013-05-19 07:31:00
3:58 AM,67.6,67.6,100,30.16,8.0,South,3.5,-,N/A,,Overcast,190,2013-05-19 07:58:00
4:08 AM,68.0,68.0,100,30.14,9.0,SSW,5.8,-,N/A,,Overcast,200,2013-05-19 08:08:00
4:13 AM,68.0,68.0,100,30.14,10.0,SSW,4.6,-,N/A,,Overcast,200,2013-05-19 08:13:00
4:31 AM,68.0,68.0,100,30.14,10.0,SSW,5.8,-,N/A,,Overcast,210,2013-05-19 08:31:00
4:36 AM,68.0,68.0,100,30.14,10.0,SSW,6.9,-,N/A,,Overcast,210,2013-05-19 08:36:00
4:41 AM,68.0,68.0,100,30.14,10.0,SSW,6.9,-,N/A,,Overcast,210,2013-05-19 08:41:00
4:51 AM,68.0,68.0,100,30.14,10.0,SW,5.8,-,N/A,,Overcast,220,2013-05-19 08:51:00
4:58 AM,68.2,68.2,100,30.16,10.0,SSW,5.8,-,N/A,,Overcast,200,2013-05-19 08:58:00
5:03 AM,68.0,68.0,100,30.14,9.0,SSW,5.8,-,N/A,,Overcast,210,2013-05-19 09:03:00
5:28 AM,68.0,68.0,100,30.15,8.0,SSW,3.5,-,N/A,,Overcast,210,2013-05-19 09:28:00
5:58 AM,68.2,68.2,100,30.17,7.0,SW,4.6,-,N/A,,Overcast,230,2013-05-19 09:58:00
6:03 AM,68.0,68.0,100,30.15,6.0,SSW,2.3,-,N/A,,Overcast,210,2013-05-19 10:03:00
6:38 AM,68.0,68.0,100,30.15,4.0,South,2.3,-,N/A,,Overcast,190,2013-05-19 10:38:00
6:53 AM,68.0,68.0,100,30.15,4.0,South,3.5,-,N/A,,Overcast,180,2013-05-19 10:53:00
6:58 AM,68.5,68.5,100,30.17,4.0,South,3.5,-,N/A,,Overcast,190,2013-05-19 10:58:00
7:13 AM,68.0,68.0,100,30.16,4.0,South,3.5,-,N/A,,Overcast,180,2013-05-19 11:13:00
7:19 AM,69.8,69.8,100,30.15,5.0,South,4.6,-,N/A,,Overcast,180,2013-05-19 11:19:00
7:24 AM,69.8,69.8,100,30.16,6.0,South,4.6,-,N/A,,Overcast,170,2013-05-19 11:24:00
7:29 AM,69.8,69.8,100,30.16,6.0,South,4.6,-,N/A,,Overcast,170,2013-05-19 11:29:00
7:34 AM,69.8,69.8,100,30.16,7.0,South,3.5,-,N/A,,Overcast,190,2013-05-19 11:34:00
7:39 AM,69.8,69.8,100,30.16,8.0,SSW,3.5,-,N/A,,Overcast,200,2013-05-19 11:39:00
7:54 AM,69.8,69.8,100,30.17,8.0,SSW,2.3,-,N/A,,Overcast,200,2013-05-19 11:54:00
7:58 AM,69.1,69.1,100,30.19,9.0,South,3.5,-,N/A,,Overcast,180,2013-05-19 11:58:00
8:58 AM,70.2,70.2,100,30.20,10.0,WSW,2.3,-,N/A,,Overcast,240,2013-05-19 12:58:00
9:08 AM,69.8,69.8,100,30.18,10.0,West,5.8,-,N/A,,Overcast,270,2013-05-19 13:08:00
9:23 AM,69.8,69.8,100,30.18,10.0,West,4.6,-,N/A,,Overcast,260,2013-05-19 13:23:00
9:48 AM,71.6,71.6,100,30.18,10.0,West,3.5,-,N/A,Rain,Light Rain,260,2013-05-19 13:48:00
9:50 AM,71.6,71.6,100,30.19,10.0,WSW,4.6,-,N/A,,Mostly Cloudy,250,2013-05-19 13:50:00
9:58 AM,71.4,71.4,100,30.21,10.0,SW,3.5,-,0.00,,Mostly Cloudy,220,2013-05-19 13:58:00
10:58 AM,73.2,72.0,96,30.21,10.0,Variable,2.3,-,N/A,,Mostly Cloudy,0,2013-05-19 14:58:00
11:08 AM,73.4,71.6,94,30.20,10.0,Variable,1.2,-,N/A,,Mostly Cloudy,0,2013-05-19 15:08:00
11:18 AM,73.4,71.6,94,30.19,10.0,Variable,2.3,-,N/A,,Mostly Cloudy,0,2013-05-19 15:18:00
11:23 AM,73.4,71.6,94,30.19,10.0,SW,3.5,-,N/A,,Mostly Cloudy,220,2013-05-19 15:23:00
11:28 AM,73.4,71.6,94,30.20,10.0,West,2.3,-,N/A,,Mostly Cloudy,270,2013-05-19 15:28:00
11:38 AM,73.4,71.6,94,30.19,10.0,Variable,1.2,-,N/A,,Mostly Cloudy,0,2013-05-19 15:38:00
11:43 AM,73.4,71.6,94,30.19,10.0,West,4.6,-,N/A,,Mostly Cloudy,270,2013-05-19 15:43:00
11:58 AM,73.9,71.8,93,30.21,10.0,Variable,2.3,-,N/A,,Mostly Cloudy,0,2013-05-19 15:58:00
12:23 PM,75.2,71.6,89,30.18,10.0,West,3.5,-,N/A,,Mostly Cloudy,260,2013-05-19 16:23:00
12:28 PM,75.2,71.6,89,30.18,10.0,Variable,2.3,-,N/A,,Mostly Cloudy,0,2013-05-19 16:28:00
12:38 PM,75.2,69.8,83,30.18,10.0,Variable,1.2,-,N/A,,Overcast,0,2013-05-19 16:38:00
12:43 PM,75.2,71.6,89,30.18,10.0,NE,8.1,-,N/A,,Overcast,50,2013-05-19 16:43:00
12:58 PM,73.6,72.5,96,30.20,10.0,ENE,8.1,-,N/A,,Overcast,60,2013-05-19 16:58:00
1:13 PM,75.2,73.4,94,30.17,10.0,East,5.8,-,N/A,,Mostly Cloudy,80,2013-05-19 17:13:00
1:14 PM,75.2,71.6,89,30.17,10.0,East,5.8,-,N/A,Rain,Light Rain,80,2013-05-19 17:14:00
1:19 PM,75.2,71.6,89,30.17,10.0,East,5.8,-,N/A,Rain,Light Rain,80,2013-05-19 17:19:00
1:58 PM,76.1,72.7,89,30.17,10.0,ENE,9.2,-,0.00,,Light Drizzle,70,2013-05-19 17:58:00
2:00 PM,75.2,73.4,94,30.15,10.0,ESE,6.9,-,N/A,,Mostly Cloudy,120,2013-05-19 18:00:00
2:58 PM,74.8,70.3,86,30.16,10.0,East,12.7,-,0.00,,Scattered Clouds,100,2013-05-19 18:58:00
3:52 PM,75.2,68.0,78,30.11,10.0,ESE,6.9,-,N/A,Rain,Light Rain,120,2013-05-19 19:52:00
3:58 PM,75.7,67.8,76,30.13,10.0,ESE,6.9,-,0.00,Rain,Light Rain,110,2013-05-19 19:58:00
3:59 PM,75.2,68.0,78,30.11,10.0,ESE,6.9,-,N/A,,Scattered Clouds,120,2013-05-19 19:59:00
4:54 PM,75.2,68.0,78,30.11,10.0,ESE,4.6,-,N/A,Rain,Light Rain,110,2013-05-19 20:54:00
4:58 PM,74.5,68.4,81,30.13,10.0,Variable,4.6,-,0.00,Rain,Light Rain,0,2013-05-19 20:58:00
5:14 PM,73.4,69.8,88,30.11,10.0,East,6.9,-,N/A,,Mostly Cloudy,90,2013-05-19 21:14:00
5:58 PM,74.3,70.2,87,30.12,10.0,ESE,5.8,-,0.00,,Scattered Clouds,120,2013-05-19 21:58:00
6:07 PM,75.2,71.6,89,30.10,10.0,ESE,5.8,-,N/A,Rain,Light Rain,110,2013-05-19 22:07:00
6:17 PM,75.2,71.6,89,30.10,10.0,Variable,5.8,-,N/A,,Scattered Clouds,0,2013-05-19 22:17:00
6:58 PM,74.7,70.2,86,30.12,10.0,SE,6.9,-,0.00,,Mostly Cloudy,140,2013-05-19 22:58:00
7:58 PM,73.2,69.6,88,30.13,10.0,ESE,6.9,-,N/A,,Mostly Cloudy,110,2013-05-19 23:58:00
8:58 PM,71.4,71.1,99,30.15,10.0,West,11.5,-,N/A,,Overcast,260,2013-05-20 00:58:00
9:03 PM,71.6,69.8,94,30.14,10.0,West,9.2,-,N/A,,Overcast,260,2013-05-20 01:03:00
9:08 PM,71.6,68.0,88,30.14,10.0,West,10.4,-,N/A,,Overcast,280,2013-05-20 01:08:00
9:09 PM,69.8,68.0,94,30.14,8.0,West,10.4,-,N/A,Rain,Light Rain,280,2013-05-20 01:09:00
9:11 PM,69.8,69.8,100,30.14,3.0,West,10.4,-,N/A,Rain,Light Rain,280,2013-05-20 01:11:00
9:16 PM,69.8,69.8,100,30.14,2.0,West,8.1,-,N/A,Rain,Light Rain,280,2013-05-20 01:16:00
9:21 PM,68.0,68.0,100,30.14,4.0,WNW,5.8,-,N/A,Rain-Thunderstorm,Light Rain,290,2013-05-20 01:21:00
9:26 PM,68.0,68.0,100,30.14,10.0,WNW,4.6,-,N/A,Rain-Thunderstorm,Light Rain,300,2013-05-20 01:26:00
9:29 PM,68.0,68.0,100,30.14,7.0,WNW,4.6,-,N/A,Rain-Thunderstorm,Light Rain,300,2013-05-20 01:29:00
9:34 PM,68.0,68.0,100,30.15,2.5,WNW,4.6,-,N/A,Rain,Heavy Rain,300,2013-05-20 01:34:00
9:39 PM,68.0,68.0,100,30.15,2.0,WNW,1.2,-,N/A,Rain,Light Rain,290,2013-05-20 01:39:00
9:44 PM,68.0,68.0,100,30.15,4.0,Calm,Calm,-,N/A,Rain,Light Rain,0,2013-05-20 01:44:00
9:54 PM,68.0,68.0,100,30.15,5.0,West,3.5,-,N/A,Rain,Light Rain,260,2013-05-20 01:54:00
9:58 PM,67.6,67.6,100,30.17,5.0,West,2.3,-,0.26,Rain,Rain,260,2013-05-20 01:58:00
10:13 PM,68.0,68.0,100,30.17,6.0,SW,6.9,-,N/A,Rain,Light Rain,230,2013-05-20 02:13:00
10:18 PM,68.0,68.0,100,30.17,4.0,SSW,8.1,-,N/A,Rain,Heavy Rain,200,2013-05-20 02:18:00
10:23 PM,68.0,68.0,100,30.16,4.0,SSW,5.8,-,N/A,Rain,Heavy Rain,200,2013-05-20 02:23:00
10:28 PM,68.0,68.0,100,30.16,5.0,SSW,5.8,-,N/A,Rain,Light Rain,210,2013-05-20 02:28:00
10:33 PM,66.2,66.2,100,30.16,10.0,SW,5.8,-,N/A,Rain,Light Rain,220,2013-05-20 02:33:00
10:58 PM,66.9,66.9,100,30.18,10.0,SSW,5.8,-,0.14,,Light Drizzle,210,2013-05-20 02:58:00
11:55 PM,68.0,68.0,100,30.15,10.0,South,1.2,-,N/A,,Overcast,190,2013-05-20 03:55:00
11:58 PM,67.8,67.8,100,30.17,10.0,SSW,2.3,-,0.01,,Mostly Cloudy,200,2013-05-20 03:58:00